San Diego Classic - Holiday Cup - Inventory

Station: INVENTORY - T Race

Distance: 10 Miles    

Release: 03-Aug-2017 16:00

Weather Release:    Arrival:

Wind at Release:     Wind at Arrival:

Temp at Release: °    Temp at Arrival: °

Lofts: 129

Birds: 700

Clocked: 599

Good Luck to Everyone!
Drops Pos Breeder Pigeon Name Color Sex Ent Arrival Speed To Win Eligible RaceAvg Speed
389 Jalisco - CA 1927-AU17-JALI BC H 5 18:40:39.40 109.550 01:55:05 Yes
390 Milestone Loft - CA 0125-AU17-SD BBSP H 10 18:40:40.90 109.533 01:55:06 Yes
391 P N A Loft - CA 1732-AU17-PNA BC H 2 18:40:45.00 109.487 01:55:10 Yes
392 U Cluj - NV 0529-AU17-OTC DC H 6 18:40:46.80 109.466 01:55:12 Yes
393 C P C A Syndicate - AZ 0901-AU17-SLI BB H 3 18:41:03.60 109.276 01:55:29 Yes
394 Humberto Munoz - EM 65380-AU17-MEX BB H 5 18:41:56.30 108.683 01:56:22 Yes
395 Win Maker Loft - CA 0162-AU17-SD BB H 3 18:42:01.00 108.631 01:56:26 Yes
396 P N A Loft - CA 1736-AU17-PNA SLT H 3 18:42:16.10 108.462 01:56:42 Yes
397 Nemeth Family Loft - CA 9040-AU17-BON BB H 7 18:42:23.00 108.386 01:56:48 Yes
398 Bird Love To Fly - CA 20085-AU17-JEDD BBWF H 8 18:42:23.50 108.380 01:56:49 Yes
399 Iv Aces Loft - CA 21993-AU17-JEDD BB H 3 18:42:28.00 108.330 01:56:53 Yes
400 Iv Aces Loft - CA 22008-AU17-JEDD BBWF H 4 18:42:43.10 108.162 01:57:09 Yes
401 Genesis Syndicate Loft - AZ 0446-AU17-SYNL BCSP H 7 18:42:53.20 108.051 01:57:19 Yes
402 Jenkins Racing - CA 0009-AU17-WEF 501x Btc BB H 5 18:42:57.30 108.005 01:57:23 Yes
403 Genesis Syndicate Loft - AZ 0429-AU17-SYNL BBSP H 8 18:43:03.40 107.938 01:57:29 Yes
404 Los Banditos - CA 0607-AU17-OAKS SLT H 2 18:43:08.50 107.882 01:57:34 Yes
405 Quest Syndicate - TX 17050-AU17-AGD BC H 2 18:43:11.50 107.849 01:57:37 Yes
406 The Association - CA 0774-AU17-JEDD Carol Says MJ BB C 7 18:43:14.20 107.819 01:57:40 Yes
407 Desert Rose Lofts - NV 0274-AU17-DRL DC H 4 18:43:17.20 107.786 01:57:43 Yes
408 P N A Loft - CA 1729-AU17-PNA BB H 4 18:43:18.60 107.770 01:57:44 Yes
408 A P C Loft - TX 17228-AU17-APC BBSP H 7 18:43:18.60 107.770 01:57:44 Yes
410 Winnerscupusa.Com - OK 43709-AU17-ARPU BC H 6 18:43:21.00 107.744 01:57:47 Yes
411 C L & Patty Gage - TX 2906-AU17-TEX DC H 5 18:43:25.30 107.697 01:57:51 Yes
411 P N A Loft - CA 1728-AU17-PNA BBWF H 5 18:43:25.30 107.697 01:57:51 Yes
413 Dan And Greg Coury - AZ 0557-AU17-DUTC BC H 2 18:43:28.90 107.657 01:57:54 Yes
414 Nemeth Family Loft - CA 9059-AU17-BON BB H 8 18:43:29.70 107.649 01:57:55 Yes
415 Bob Carney - CT 1007-IF17-LCC BB H 2 18:43:30.00 107.645 01:57:56 Yes
416 Transilvania Loft - NV 12310-AU17-JEDD BB H 2 18:43:30.60 107.639 01:57:56 Yes
417 Drama Queen Loft - TX 0377-AU17-GCI BBSP H 2 18:43:36.70 107.572 01:58:02 Yes
418 Drama Queen Loft - TX 0367-AU17-GCI BB H 3 18:43:41.70 107.517 01:58:07 Yes
419 F & D Lofts - AB 17114-AU17-FD BB H 3 18:43:43.00 107.503 01:58:08 Yes
420 Four For More 2 - CA 1730-AU17-CVII BC H 4 18:43:43.60 107.496 01:58:09 Yes
421 Drama Queen Loft - TX 0381-AU17-GCI BCWF H 4 18:43:47.00 107.459 01:58:13 Yes
422 Nemeth Family Loft - CA 9064-AU17-BON BB H 9 18:43:54.40 107.378 01:58:20 Yes
423 Hawaiian Express - CA 0172-AU17-HAWE BB H 5 18:43:57.00 107.350 01:58:22 Yes
424 A V A Lofts - CA 28305-AU17-JEDD BB H 3 18:43:59.00 107.328 01:58:25 Yes
425 C & D Loft - CA 0403-AU17-PAL BC H 2 18:44:04.80 107.265 01:58:30 Yes
426 Utaz Team - UT 0828-AU17-PSC BB H 4 18:44:05.40 107.258 01:58:31 Yes
427 Hawaiian Express - CA 0173-AU17-HAWE BB H 6 18:44:09.00 107.219 01:58:35 Yes
428 G & L Loft - OR 2335-AU17-WPC BB H 1 18:44:11.50 107.192 01:58:37 Yes
Two-Be-Won - NV 17114-AU17-TBW BB C 18:44:11.90 107.187 Yes
429 Farmers Loft - CA 0607-AU17-FARM BBSP H 1 18:44:14.80 107.156 01:58:40 Yes
430 Win Maker Loft - CA 0155-AU17-PNOY BB H 4 18:44:15.50 107.148 01:58:41 Yes
431 Bryan Maier - PA 0378-AU17-MAIE BCPD H 5 18:44:25.00 107.045 01:58:51 Yes
432 P N A Loft - CA 1744-AU17-PNA BB H 6 18:44:27.90 107.014 01:58:53 Yes
433 Los Banditos - CA 2457-AU17-LOSB DC H 3 18:44:29.40 106.997 01:58:55 Yes
434 Gerald Antonio - CA 1806-AU17-SD BB H 1 18:44:42.70 106.853 01:59:08 Yes
435 Hawaiian Express - CA 0101-AU17-HAWE BBWF H 7 18:44:47.30 106.804 01:59:13 Yes
436 Ancona Loft - CA 0003-AU17-ANCO BCP H 1 18:44:55.40 106.716 01:59:21 Yes
437 Roberto Garcia And Franco - CA 17012-AU17-YIIK SIL H 1 18:45:00.70 106.659 01:59:26 Yes
438 Hawaiian Express - CA 0186-AU17-HAWE BBSP H 8 18:45:11.90 106.539 01:59:37 Yes
439 Bill Blankenship - CA 0136-AU17-VIP DKSP H 2 18:45:18.00 106.473 01:59:44 Yes
440 Two-Be-Won - NV 17137-AU17-TBW SIL H 4 18:45:28.90 106.356 01:59:54 Yes
441 Nemeth Family Loft - CA 9039-AU17-BON BB H 10 18:45:30.80 106.336 01:59:56 Yes
442 Jokers Wild - CA 0313-AU17-JW BBWF H 1 18:45:34.30 106.298 02:00:00 Yes
443 A P C Loft - TX 17184-AU17-APC BB H 8 18:45:39.90 106.238 02:00:05 Yes
444 Carlton Kroese-Crazy Al - CO 1104-AU17-HOHC BB H 4 18:45:51.90 106.110 02:00:17 Yes
445 Mesopotamia Loft - MN 0345-AU17-MESO BB H 4 18:45:54.90 106.078 02:00:20 Yes
446 Flying D Loft - TX 0157-AU17-FLYD DC H 5 18:45:55.40 106.073 02:00:21 Yes
447 Eduardo Torres - TX 14261-AU17-ARPU BB H 3 18:45:59.00 106.035 02:00:24 Yes
448 Lamberton Loft - OK 0071-AU17-LAMB BB H 2 18:46:04.90 105.972 02:00:30 Yes
449 The Association - CA 1737-AU17-WBO Uniquely Requested BB C 8 18:46:08.80 105.931 02:00:34 Yes
450 Carlton Kroese-Crazy Al - CO 5005-AU17-CRAZ DC H 5 18:46:10.00 105.918 02:00:35 Yes
451 Mesopotamia Loft - MN 5312-AU17-VITA BB H 5 18:46:10.40 105.914 02:00:36 Yes
452 Naylor/Spring - BC 1364-CU17-MPAC BB H 2 18:46:13.00 105.886 02:00:38 Yes
453 C & D Loft - CA 0404-AU17-PAL BBWF H 3 18:46:14.60 105.869 02:00:40 Yes
454 Genesis Syndicate Loft - AZ 0447-AU17-SYNL BC H 9 18:46:17.40 105.839 02:00:43 Yes
455 Ancona Loft - CA 0004-AU17-ANCO BCP H 2 18:46:31.40 105.691 02:00:57 Yes
456 Rick Barker - CA 0003-AU17-VIP BBWF H 8 18:46:38.70 105.614 02:01:04 Yes
457 Arrowhead Loft - CA 0009-AU17-AH BBWF H 4 18:46:41.80 105.581 02:01:07 Yes
458 Winnerscupusa.Com - OK 43716-AU17-ARPU BBWF H 7 18:47:44.90 104.919 02:02:10 Yes
459 Tom Cano Family - CA 0792-AU17-SD GRIZ H 5 18:47:53.90 104.825 02:02:19 Yes
460 Hugo Avila Loft - CA 0289-AU17-SD BBPD H 2 18:47:54.80 104.816 02:02:20 Yes
461 Tony Chang - CA 0280-AU17-PAL BBWF H 3 18:48:00.70 104.755 02:02:26 Yes
462 Haslem-Stevens - UT 7927-AU17-COR BC H 4 18:48:06.70 104.692 02:02:32 Yes
Cn-Tou Loft - TN 0037-AU17-TOUL BC H 18:48:46.90 104.277 Yes
463 Haslem-Stevens - UT 7928-AU17-COR BB H 5 18:49:10.00 104.039 02:03:36 Yes
464 Sandstrom Brothers Loft - MN 0753-AU17-SBL BC H 5 18:49:21.00 103.927 02:03:46 Yes
465 Carlton Kroese-Crazy Al - CO 1125-AU17-HOHC BC H 6 18:49:22.70 103.909 02:03:48 Yes
466 Eduardo Torres - TX 14282-AU17-ARPU BC H 4 18:49:25.10 103.885 02:03:51 Yes
467 Sandstrom Brothers Loft - MN 0749-AU17-SBL BB H 6 18:49:26.40 103.872 02:03:52 Yes
468 Avelino Loft - CA 7056-AU17-HAN BB H 3 18:49:37.30 103.760 02:04:03 Yes
469 Shiloft - PA 5035-AU17-ERIE BB H 4 18:50:08.00 103.448 02:04:34 Yes
470 English Syn 3 - LA 12504-AU17-GBD BC H 4 18:50:10.30 103.425 02:04:36 Yes
U Cluj - NV 12296-AU17-JEDD BB H 18:50:12.80 103.400 Yes
471 U Cluj - NV 12019-AU17-JEDD BB H 7 18:50:21.70 103.310 02:04:47 Yes
472 Sandstrom Brothers Loft - MN 0750-AU17-SBL BC H 7 18:50:37.70 103.148 02:05:03 Yes
473 Farmers Loft - CA 0603-AU17-FARM DC H 2 18:50:42.30 103.102 02:05:08 Yes
474 P N A Loft - CA 1745-AU17-PNA BB H 7 18:50:45.80 103.067 02:05:11 Yes
475 Anthony Cuba - CA 3175-AU17-HP BBWF H 4 18:50:47.80 103.047 02:05:13 Yes
476 Dan And Greg Coury - AZ 4407-AU17-ARPU BB H 3 18:50:54.00 102.984 02:05:20 Yes
477 Naylor/Spring - BC 1011-CU17-MPAC SIL H 3 18:51:04.10 102.883 02:05:30 Yes
478 English Syn 3 - LA 0318-AU17-MET BC H 5 18:51:12.50 102.799 02:05:38 Yes
479 Tony Chang - CA 0277-AU17-PAL BB H 4 18:51:13.40 102.790 02:05:39 Yes
480 Milo Garver - CA 1102-AU17-SD BC H 1 18:51:19.00 102.734 02:05:44 Yes
481 Two-Be-Won - NV 17119-AU17-TBW BB H 5 18:51:20.10 102.723 02:05:46 Yes
Sterchi & Bieche - CA 7288-AU17-BICH BB H 18:51:20.40 102.720 Yes
482 Carlton Kroese-Crazy Al - CO 5035-AU17-CRAZ BC H 7 18:51:20.80 102.716 02:05:46 Yes
483 P N A Loft - CA 1739-AU17-PNA BC H 8 18:51:22.20 102.702 02:05:48 Yes
484 F & D Lofts - AB 17096-AU17-FD BB H 4 18:51:26.00 102.664 02:05:51 Yes

There are 704 bird records

Note: These Race Results are unofficial and subject to change until verified by the Race Committee and declared final.